AO-16
1 20439U 90005D 15133.77548174 .00000291 00000-0 12342-3 0 9995
2 20439 098.5390 070.4791 0009657 262.0184 157.8794 14.32537155321814
LO-19
1 20442U 90005G 15133.77413835 .00000266 00000-0 11349-3 0 9992
2 20442 098.5100 070.1388 0010634 248.7208 111.2841 14.32730424322015
AO-27
1 22825U 93061C 15133.44361139 .00000248 00000-0 11380-3 0 9992
2 22825 098.7060 083.5490 0009404 054.9610 090.6362 14.29875348127975
IO-26
1 22826U 93061D 15133.82942265 .00000268 00000-0 12083-3 0 9993
2 22826 098.7003 084.1065 0009814 046.4366 313.7629 14.30191785128173
GO-32
1 25397U 98043D 15133.46823904 .00000145 00000-0 82244-4 0 9993
2 25397 098.5169 085.0042 0002440 078.0723 059.7265 14.23542723874851
NO-44
1 26931U 01043C 15133.53831484 .00000289 00000-0 14315-3 0 9994
2 26931 067.0516 266.4683 0005920 265.4200 094.6225 14.30307798710848
SO-50
1 27607U 02058C 15134.60522771 .00001711 00000-0 24206-3 0 9998
2 27607 064.5565 301.3386 0079804 294.7944 064.5366 14.74701646666330
CO-55
1 27844U 03031E 15133.51862044 .00000528 00000-0 25986-3 0 9993
2 27844 098.6957 142.5396 0010569 046.7856 104.5709 14.21789199615513
CO-57
1 27848U 03031J 15133.52463336 .00000446 00000-0 22407-3 0 9993
2 27848 098.7054 142.4349 0010591 053.3607 072.0433 14.21437625615423
AO-51
1 28375U 04025K 15133.81645476 .00000513 00000-0 16401-3 0 9994
2 28375 098.2903 075.2522 0084043 073.6493 287.3917 14.41649740571541
CP3
1 31129U 07012N 15133.50190738 .00002589 00000-0 56424-3 0 9990
2 31129 097.9771 100.7751 0098140 062.2949 055.4519 14.55750112428074
CO-65
1 32785U 08021C 15133.53088920 .00002928 00000-0 33405-3 0 9993
2 32785 097.6524 178.3664 0013685 174.5976 296.3121 14.86776633381082
PRISM
1 33493U 09002B 15134.65499402 .00009052 00000-0 86741-3 0 9991
2 33493 098.2534 330.4320 0017531 081.2797 279.0909 14.93072827341570
SOHLA-1
1 33496U 09002E 15133.90781936 .00000988 00000-0 16813-3 0 9999
2 33496 098.2069 261.5088 0005017 273.2046 199.4962 14.71337749338132
TISAT-1
1 36799U 10035E 15134.25664087 .00005507 00000-0 60011-3 0 9993
2 36799 098.0137 234.2446 0011981 322.9124 064.0921 14.88352625261917
STUDSAT
1 36801U 10035G 15134.30265909 .00034815 00000-0 20781-2 0 9996
2 36801 098.0574 251.8994 0005996 245.8677 141.6883 15.11022912262857
ALMASAT-1
1 38078U 12006B 15134.43527725 .00042732 36621-5 71313-3 0 9993
2 38078 069.4569 325.4421 0487591 303.8808 051.6842 14.77352087170055
CUBEBUG-1
1 39153U 13018D 15134.46492513 .00003227 00000-0 44133-3 0 9994
2 39153 098.0172 218.9268 0017308 007.0486 353.0965 14.79154744110492
ESTCUBE-1
1 39161U 13021C 15134.26165163 .00001629 00000-0 27285-3 0 9996
2 39161 098.0708 217.4860 0011195 067.8292 292.4129 14.71100861108257
DUCHIFAT-1
1 40021U 14033M 15134.48362641 .00004252 00000-0 47019-3 0 9993
2 40021 097.9546 034.9758 0012947 303.8343 056.1949 14.87866743 48798
NANOSATCBR1
1 40024U 14033Q 15134.39725609 .00003644 00000-0 40789-3 0 9994
2 40024 097.9539 034.7089 0011794 300.3270 059.6878 14.87471630 48772
DTUSAT-2
1 40030U 14033W 15134.38802576 .00003060 00000-0 35054-3 0 9990
2 40030 097.9517 034.3673 0010955 291.8066 068.1992 14.86658629 48760
ANTELSAT
1 40034U 14033AA 15134.34155401 .00002016 00000-0 31605-3 0 9996
2 40034 097.9481 027.1272 0058713 227.8706 131.7532 14.72633683 48319
MET-2/21
1 22782U 93055A 15133.51729197 .00000105 00000-0 81352-4 0 9996
2 22782 082.5487 271.1757 0023413 060.4528 006.8765 13.83769129 95808
OKEAN-4
1 23317U 94066A 15133.51274539 .00002519 00000-0 28013-3 0 9994
2 23317 082.5360 117.9991 0021958 085.2461 065.8975 14.86609788112168
NOAA-14
1 23455U 94089A 15134.44492139 .00000073 00000-0 61315-4 0 9999
2 23455 098.7525 216.5900 0009659 170.0501 251.0451 14.14039583 50767
NOAA-15
1 25338U 98030A 15134.46814615 .00000369 00000-0 17469-3 0 9998
2 25338 098.7719 133.0830 0009401 266.3143 093.6961 14.25616837884031
RESURS
1 25394U 98043A 15133.52147257 .00000057 00000-0 42607-4 0 9998
2 25394 098.4621 089.8600 0002122 049.8210 064.1683 14.24456871875344
FENGYUN1
1 25730U 99025A 15133.50368002 .00002809 00000-0 15191-2 0 9997
2 25730 098.9418 098.3802 0016896 247.6745 251.0429 14.13311760824153
OKEAN-0
1 25860U 99039A 15133.49008589 .00001337 00000-0 20173-3 0 9997
2 25860 098.0910 101.4878 0002002 085.7481 060.1662 14.76011000850864
NOAA-16
1 26536U 00055A 15134.46206329 .00000103 00000-0 79246-4 0 9994
2 26536 098.9447 200.4679 0009928 333.5380 026.5284 14.13093742754890
NOAA-17
1 27453U 02032A 15134.51320196 .00000179 00000-0 94064-4 0 9993
2 27453 098.3381 122.1802 0010459 283.7684 076.2332 14.24880721669863
NOAA-18
1 28654U 05018A 15134.47929725 .00000348 00000-0 21478-3 0 9998
2 28654 099.1826 126.3028 0015254 057.6657 302.5988 14.12193747514315
NOAA-19
1 33591U 09005A 15134.50593015 .00000380 00000-0 23221-3 0 9991
2 33591 098.9873 084.3086 0012898 265.3220 094.6478 14.11930753322733
HUBBLE
1 20580U 90037B 15133.02603241 .00004759 00000-0 29570-3 0 9996
2 20580 028.4711 025.9756 0002753 216.4472 268.8106 15.07342418174500
ISS
1 25544U 98067A 15134.59822707 .00034279 00000-0 48257-3 0 9998
2 25544 051.6437 251.7635 0007218 312.8373 047.2524 15.55962260942811
CO-58
1 28895U 05043F 15133.51150382 .00001665 00000-0 33455-3 0 9993
2 28895 097.8219 323.0967 0018198 049.9473 310.3323 14.62741979508528
FALCON
1 30776U 07006E 15134.37948685 .00017897 00000-0 72566-3 0 9991
2 30776 035.4271 212.9830 0001659 324.5759 080.9430 15.23813709451135
MAST
1 31126U 07012K 15133.91244999 .00001829 00000-0 40232-3 0 9997
2 31126 097.9576 103.5076 0092121 043.4609 012.4438 14.56014791428500
CAPE1
1 31130U 07012P 15133.46548968 .00002246 00000-0 49388-3 0 9990
2 31130 097.9794 100.2224 0098834 064.2040 296.9315 14.55430857427835
COMPASS
1 32787U 08021E 15133.83894977 .00005889 00000-0 60667-3 0 9994
2 32787 097.6549 182.5625 0013881 161.0250 199.1488 14.90546570381399
AAUSAT2
1 32788U 08021F 15133.38715701 .00006052 00000-0 60787-3 0 9998
2 32788 097.6556 183.5792 0013354 159.8754 200.2995 14.91560069381413
DO-64
1 32789U 08021G 15133.49042979 .00013623 00000-0 11137-2 0 9997
2 32789 097.6758 194.0722 0010986 141.8158 275.3221 14.99433350381881
CO-66
1 32791U 08021J 15133.81228885 .00005435 00000-0 58731-3 0 9992
2 32791 097.6544 180.4858 0014466 167.1168 193.0422 14.88639434381209
RS-30
1 32953U 08025A 15134.35126028 .00000010 00000-0 -13620-7 0 9999
2 32953 082.5073 355.2915 0018937 151.0723 209.1409 12.43059566316406
METEOR-M
1 35865U 09049A 15134.15325617 .00000089 00000-0 59490-4 0 9991
2 35865 098.5021 175.7091 0001657 196.6391 163.4735 14.22021665293370
RS-38
1 35869U 09049E 15134.33349624 .00000083 00000-0 56349-4 0 9993
2 35869 098.4940 175.5315 0003866 205.2161 154.8839 14.22292424293446
JUGNU
1 37839U 11058B 15134.18174403 .00000581 00000-0 16801-3 0 9990
2 37839 019.9619 048.6635 0018927 032.2642 116.2903 14.12462420185401
SRMSAT
1 37841U 11058D 15134.21683157 .00000521 00000-0 14240-3 0 9997
2 37841 019.9721 074.4591 0011671 319.5008 184.1181 14.10475071185150
RAX-2
1 37853U 11061D 15134.11953771 .00015105 00000-0 92043-3 0 9996
2 37853 101.7159 328.4226 0197856 175.1371 332.3742 14.95649037192015
AUBIESAT
1 37854U 11061E 15133.52279089 .00014463 00000-0 84788-3 0 9997
2 37854 101.7255 330.8434 0192053 172.0736 243.7558 14.97740500192037
HRBE
1 37855U 11061F 15133.49605319 .00014644 00000-0 87126-3 0 9993
2 37855 101.7214 329.4949 0196983 174.3448 186.0050 14.96579435191962
